map of BZV home
Great Circle Mapper logo
BZV - Airport
Location
City:  Brazzaville, Republic of Congo
Name:Maya Maya
ICAO / IATA:FCBB / BZV

Details
Type:Airport (Aerodrome, Airfield)
Use:Public/Civil
Latitude:415'02"S (-4.250499)
Longitude:1515'05"E (15.251500)
Elevation:1048 ft (319 m)
Variation:1.77W (WMM2015 magnetic declination)
0.15 annual change
Runways:2
Longest:10827 × 148 ft (3300 × 45 m)

Time
Time Zone:UTC+1
Local Time:

Weather
METAR:FCBB 271400Z 06005KT 8000 -RA FEW010 25/20 Q1013 NOSIG
TAF:FCBB 271100Z 2712/2818 24006KT 7000 RA SCT013 SCT023
BECMG 2713/2714 NSW SCT016
TEMPO 2805/2808 2500 BR
BECMG 2811/2814 SCT020 FEW030CB

Related Locations
Nearby:
Farthest:PLPA: 12228 mi / 19679 km
Palmyra Island Atoll [Palmyra Airport (Cooper)], UM

Find:

   beyond  
but within

Other Information
Maps:
NOTAMs:
Links:
Sources:

  
flag of Republic of Congo   

Sectional Chart

Flight Planning
at skyvector.com

Satellite Image

Google Maps Satellite View

 

Copyright © 2004-2015 Karl L. Swartz. All rights reserved.
The Great Circle Mapper name and logo are trademarks of the Great Circle Mapper.
All other trademarks mentioned herein belong to their respective owners.
Please see credits for attibutions and further copyright information.

  Follow gcmap on Facebook Follow gcmap on Twitter Follow gcmap on Google+

hCard Microformat

Geo Microformat